カタログに戻る

STARLINK-2501

運用中通信VLEO
NORAD 48330·PAYLOAD·🇺🇸 United States

打ち上げ Apr 29, 2021 から Cape Canaveral Space Force Station

Loading…

次のパス (今後24時間)

TLE

最新Source: CelesTrak SupGP

元期: Sep 14, 2026, 13:26 UTC

1 48330C 21036BG  26257.56020833  .00053802  00000+0  17304-2 0  2570
2 48330  53.1586 302.5176 0001209  76.6252  89.8421 15.31670685    17

AllMySatでSTARLINK-2501をリアルタイム追跡

Download on the App Store